Hourly Data Report for January 13, 2020

TORONTO CITY
ONTARIO
Current Station Operator: ECCC - MSC

43°40'00.000" N
79°24'00.000" W
112.50 m
6158355
71508
XTO

Download Data

Hourly Data (January 2020)
Hourly Data Report for January 13, 2020
TIME
LST
Temp Definition
°C
Dew Point Definition
°C
Rel Hum Definition
%
Precip. Amount Definition
mm

Wind Dir Definition
10's deg

Wind Spd Definition
km/h
Visibility Definition
km
Stn Press Definition
kPa
Hmdx Definition


Wind Chill Definition


Weather Definition


00:00 -4.4 -7.5 79 0.0       101.56     LegendNANA
01:00 -4.4 -7.1 82 0.0       101.51     LegendNANA
02:00 -4.1 -6.0 86 0.0       101.44     LegendNANA
03:00 -3.0 -4.8 88 0.0       101.32     LegendNANA
04:00 -1.8 -3.7 87 0.0       101.27     LegendNANA
05:00 -3.5 -5.4 87 0.0       101.27     LegendNANA
06:00 -3.4 -4.8 90 0.0       101.18     LegendNANA
07:00 -2.7 -4.2 90 0.0       101.16     LegendNANA
08:00 -2.0 -3.4 90 0.0       101.17     LegendNANA
09:00 -1.2 -2.5 91 0.0       101.18     LegendNANA
10:00 -0.5 -1.8 91 0.0       101.20     LegendNANA
11:00 -0.5 -1.9 90 0.0       101.25     LegendNANA
12:00 -0.1 -1.7 89 0.0       101.20     LegendNANA
13:00 0.6 -1.1 89 0.0       101.16     LegendNANA
14:00 1.0 -0.8 88 0.0       101.16     LegendNANA
15:00 1.5 -0.4 87 0.0       101.22     LegendNANA
16:00 1.6 -0.4 87 0.0       101.29     LegendNANA
17:00 1.6 -0.4 87 0.0       101.35     LegendNANA
18:00 1.7 -0.2 87 0.0       101.39     LegendNANA
19:00 1.9 -0.1 86 0.0       101.45     LegendNANA
20:00 2.3 0.2 86 0.0       101.49     LegendNANA
21:00 2.3 -0.2 84 0.0       101.48     LegendNANA
22:00 1.8 -0.7 83 0.0       101.51     LegendNANA
23:00 1.4 -1.0 84 0.0       101.55     LegendNANA

Notes on Data Quality.

Legend

  • E = Estimated
  • M = Missing
  • NA = Not Available*
  • [empty] = Indicates an unobserved value
Date modified: